• In Belarus
  • List of Countries
  • For 7 days
  • Water Temperature
  • Satellite Maps
  • Weather Map
  • Weather Widgets
  • user-avatar
    Login

    Hourly Weather Dlugie

    Today, 21 February, Thursday

    Time Temperature Precipitation Wind Pressure Humidity
    00:00 +5°C° 0 mm 2 mps 760 mmHg 90%
    01:00 +5°C° 0 mm 2 mps 760 mmHg 92%
    02:00 +4°C° 0 mm 3 mps 760 mmHg 90%
    03:00 +4°C° 0 mm 3 mps 760 mmHg 89%
    04:00 +4°C° 0 mm 3 mps 760 mmHg 87%
    05:00 +4°C° 0.1 mm 3 mps 760 mmHg 87%
    06:00 +4°C° 0.1 mm 4 mps 760 mmHg 87%
    07:00 +4°C° 0.1 mm 4 mps 759 mmHg 87%
    08:00 +5°C° 0.2 mm 4 mps 759 mmHg 85%
    09:00 +5°C° 0.2 mm 5 mps 760 mmHg 84%
    10:00 +5°C° 0.2 mm 5 mps 760 mmHg 82%
    11:00 +6°C° 0.1 mm 5 mps 759 mmHg 80%
    12:00 +7°C° 0.1 mm 6 mps 759 mmHg 77%
    13:00 +7°C° 0.1 mm 6 mps 759 mmHg 75%
    14:00 +7°C° 0.1 mm 5 mps 759 mmHg 77%
    15:00 +7°C° 0.1 mm 5 mps 759 mmHg 79%
    16:00 +7°C° 0.1 mm 5 mps 759 mmHg 81%
    17:00 +7°C° 0.4 mm 5 mps 758 mmHg 84%
    18:00 +7°C° 0.4 mm 5 mps 758 mmHg 86%
    19:00 +7°C° 0.4 mm 5 mps 758 mmHg 89%
    20:00 +7°C° 0.1 mm 5 mps 759 mmHg 89%
    21:00 +7°C° 0.1 mm 5 mps 759 mmHg 89%
    22:00 +6°C° 0.1 mm 5 mps 759 mmHg 90%
    23:00 +6°C° 0.3 mm 5 mps 759 mmHg 90%

    Tomorrow, 22 February, Friday

    Time Temperature Precipitation Wind Pressure Humidity
    00:00 +6°C° 0.3 mm 5 mps 760 mmHg 90%
    01:00 +6°C° 0.3 mm 5 mps 760 mmHg 90%
    02:00 +5°C° 0.1 mm 5 mps 761 mmHg 88%
    03:00 +5°C° 0.1 mm 5 mps 762 mmHg 85%
    04:00 +3°C° 0.1 mm 5 mps 763 mmHg 83%
    05:00 +2°C° 0 mm 5 mps 764 mmHg 81%
    06:00 0°C° 0 mm 5 mps 765 mmHg 80%
    07:00 -1°C° 0 mm 5 mps 766 mmHg 78%
    08:00 -1°C° 0 mm 4 mps 768 mmHg 71%
    09:00 -1°C° 0 mm 4 mps 769 mmHg 64%
    10:00 -1°C° 0 mm 4 mps 770 mmHg 56%
    11:00 0°C° 0 mm 4 mps 770 mmHg 52%
    12:00 +2°C° 0 mm 3 mps 771 mmHg 47%
    13:00 +2°C° 0 mm 3 mps 771 mmHg 43%
    14:00 +2°C° 0 mm 3 mps 772 mmHg 43%
    15:00 +2°C° 0 mm 3 mps 772 mmHg 43%
    16:00 +2°C° 0 mm 3 mps 772 mmHg 43%
    17:00 +2°C° 0 mm 2 mps 773 mmHg 47%
    18:00 +1°C° 0 mm 2 mps 773 mmHg 52%
    19:00 +1°C° 0 mm 1 mps 774 mmHg 56%
    20:00 +1°C° 0 mm 1 mps 774 mmHg 57%
    21:00 -2°C° 0 mm 2 mps 774 mmHg 57%
    22:00 -2°C° 0 mm 2 mps 775 mmHg 58%
    23:00 -2°C° 0 mm 2 mps 775 mmHg 56%

    Day after tomorrow, 23 February, Saturday

    Time Temperature Precipitation Wind Pressure Humidity
    00:00 -3°C° 0 mm 2 mps 775 mmHg 55%
    01:00 -4°C° 0 mm 3 mps 775 mmHg 53%
    02:00 -3°C° 0 mm 2 mps 775 mmHg 53%
    03:00 -3°C° 0 mm 2 mps 775 mmHg 53%
    04:00 -1°C° 0 mm 1 mps 775 mmHg 53%
    05:00 -1°C° 0 mm 1 mps 775 mmHg 53%
    06:00 -1°C° 0 mm 1 mps 775 mmHg 53%
    07:00 -1°C° 0 mm 1 mps 775 mmHg 53%
    08:00 0°C° 0 mm 1 mps 775 mmHg 48%
    09:00 -1°C° 0 mm 2 mps 775 mmHg 43%
    10:00 +1°C° 0 mm 2 mps 775 mmHg 37%
    11:00 +2°C° 0 mm 2 mps 775 mmHg 34%
    12:00 +2°C° 0 mm 2 mps 775 mmHg 32%
    13:00 +3°C° 0 mm 2 mps 775 mmHg 29%
    14:00 +4°C° 0 mm 1 mps 775 mmHg 30%
    15:00 +5°C° 0 mm 1 mps 774 mmHg 32%
    16:00 +5°C° 0 mm 1 mps 774 mmHg 33%
    17:00 +3°C° 0 mm 1 mps 774 mmHg 36%
    18:00 +2°C° 0 mm 1 mps 774 mmHg 39%
    19:00 +1°C° 0 mm 1 mps 774 mmHg 42%
    20:00 +1°C° 0 mm 1 mps 774 mmHg 43%
    21:00 +1°C° 0 mm 1 mps 773 mmHg 43%
    22:00 +1°C° 0 mm 1 mps 773 mmHg 44%
    23:00 +1°C° 0 mm 1 mps 773 mmHg 44%

    24 February, Sunday

    Time Temperature Precipitation Wind Pressure Humidity
    00:00 -1°C° 0 mm 2 mps 773 mmHg 45%
    01:00 -1°C° 0 mm 2 mps 773 mmHg 46%
    02:00 -1°C° 0 mm 2 mps 773 mmHg 47%
    03:00 -1°C° 0 mm 2 mps 772 mmHg 47%
    04:00 -2°C° 0 mm 2 mps 772 mmHg 48%
    05:00 -1°C° 0 mm 2 mps 772 mmHg 49%
    06:00 -1°C° 0 mm 2 mps 772 mmHg 49%
    07:00 -1°C° 0 mm 2 mps 771 mmHg 50%
    08:00 +1°C° 0 mm 2 mps 771 mmHg 47%
    09:00 +2°C° 0 mm 2 mps 771 mmHg 45%
    10:00 +4°C° 0 mm 2 mps 771 mmHg 42%
    11:00 +4°C° 0 mm 3 mps 771 mmHg 42%
    12:00 +5°C° 0 mm 3 mps 771 mmHg 42%
    13:00 +8°C° 0 mm 3 mps 770 mmHg 42%
    14:00 +8°C° 0 mm 3 mps 770 mmHg 46%
    15:00 +8°C° 0 mm 3 mps 769 mmHg 51%
    16:00 +8°C° 0 mm 3 mps 769 mmHg 55%
    17:00 +5°C° 0 mm 3 mps 769 mmHg 60%
    18:00 +4°C° 0 mm 3 mps 769 mmHg 64%
    19:00 +3°C° 0 mm 3 mps 769 mmHg 69%
    20:00 +3°C° 0 mm 3 mps 769 mmHg 74%
    21:00 +3°C° 0 mm 3 mps 769 mmHg 79%
    22:00 +3°C° 0 mm 3 mps 769 mmHg 84%
    23:00 +2°C° 0 mm 3 mps 769 mmHg 87%

    25 February, Monday

    Time Temperature Precipitation Wind Pressure Humidity
    00:00 +2°C° 0 mm 3 mps 769 mmHg 91%
    01:00 +2°C° 0 mm 3 mps 769 mmHg 95%
    02:00 +2°C° 0 mm 3 mps 770 mmHg 95%
    03:00 +3°C° 0 mm 2 mps 770 mmHg 95%
    04:00 +3°C° 0 mm 2 mps 770 mmHg 95%
    05:00 +3°C° 0 mm 2 mps 771 mmHg 95%
    06:00 +2°C° 0 mm 2 mps 771 mmHg 95%
    07:00 +2°C° 0 mm 2 mps 772 mmHg 95%
    08:00 +3°C° 0 mm 2 mps 772 mmHg 86%
    09:00 +5°C° 0 mm 2 mps 772 mmHg 77%
    10:00 +6°C° 0 mm 2 mps 773 mmHg 69%
    11:00 +7°C° 0 mm 2 mps 773 mmHg 61%
    12:00 +8°C° 0 mm 2 mps 773 mmHg 53%
    13:00 +10°C° 0 mm 2 mps 773 mmHg 45%
    14:00 +9°C° 0 mm 2 mps 772 mmHg 47%
    15:00 +9°C° 0 mm 2 mps 772 mmHg 48%
    16:00 +9°C° 0 mm 2 mps 772 mmHg 50%
    17:00 +8°C° 0 mm 2 mps 772 mmHg 55%
    18:00 +7°C° 0 mm 2 mps 772 mmHg 60%
    19:00 +5°C° 0 mm 2 mps 772 mmHg 66%
    20:00 +5°C° 0 mm 2 mps 771 mmHg 70%
    21:00 +4°C° 0 mm 2 mps 771 mmHg 73%
    22:00 +4°C° 0 mm 2 mps 770 mmHg 77%
    23:00 +4°C° 0 mm 2 mps 770 mmHg 82%

    26 February, Tuesday

    Time Temperature Precipitation Wind Pressure Humidity
    00:00 +2°C° 0 mm 3 mps 769 mmHg 86%
    01:00 +2°C° 0 mm 3 mps 769 mmHg 90%
    02:00 +2°C° 0 mm 3 mps 768 mmHg 91%
    03:00 +2°C° 0 mm 3 mps 768 mmHg 91%
    04:00 +1°C° 0 mm 4 mps 767 mmHg 91%
    05:00 +1°C° 0 mm 4 mps 767 mmHg 92%
    06:00 +2°C° 0 mm 3 mps 766 mmHg 93%
    07:00 +2°C° 0 mm 3 mps 766 mmHg 93%
    08:00 +3°C° 0 mm 4 mps 766 mmHg 87%
    09:00 +4°C° 0 mm 4 mps 765 mmHg 80%
    10:00 +6°C° 0 mm 4 mps 765 mmHg 73%
    11:00 +7°C° 0 mm 5 mps 765 mmHg 68%
    12:00 +8°C° 0 mm 5 mps 764 mmHg 63%
    13:00 +10°C° 0 mm 5 mps 764 mmHg 57%
    14:00 +10°C° 0 mm 5 mps 763 mmHg 58%
    15:00 +10°C° 0 mm 5 mps 763 mmHg 58%
    16:00 +10°C° 0 mm 5 mps 763 mmHg 59%
    17:00 +9°C° 0 mm 5 mps 763 mmHg 64%
    18:00 +8°C° 0 mm 4 mps 763 mmHg 69%
    19:00 +7°C° 0 mm 4 mps 763 mmHg 74%
    20:00 +6°C° 0 mm 4 mps 763 mmHg 76%
    21:00 +6°C° 0 mm 4 mps 763 mmHg 79%
    22:00 +5°C° 0 mm 3 mps 763 mmHg 82%
    23:00 +5°C° 0 mm 3 mps 763 mmHg 85%
    Show more